[[{"header":{"parameterUnit":"m.s-1","parameterCategory":1,"la1":30.2991,"la2":30.254,"lo1":-89.0895,"lo2":-89.0444,"dy":0.0017,"dx":0.0017,"nx":28,"ny":28,"refTime":"2024-11-29T09:00:00:Z","depth":0,"parameterNumber":2,"parameterNumberName":"U-component_of_WINDS"},"data":[0,0,0,0,0,0,0,0,0,0,0,0,0,0,0,0,0,0,0,0,0,0,0,0,0,0,0,0,0,0,0,0,0,0,0,0,0,0,0,0,0,0,0,0,0,0,0,0,0,0,0,0,0,0,0,0,0,0,-2.2866,-2.2866,0,-2.2896,-2.2897,-2.2897,-2.2843,-2.2841,-2.2839,-2.2837,-2.287,-2.2873,-2.2875,0,0,0,0,0,0,0,0,0,0,0,0,0,-2.2761,-2.2763,-2.2866,-2.2866,-2.2866,-2.2896,-2.2897,-2.2897,-2.2843,-2.2841,-2.2838,-2.2836,-2.2869,-2.2872,-2.2875,0,0,0,0,0,0,0,0,0,0,0,0,0,-2.28,-2.2764,-2.2866,-2.2843,-2.2841,-2.2896,-2.2897,-2.2897,-2.2843,-2.2841,-2.2838,-2.2835,-2.2868,-2.2872,-2.2876,-2.2955,0,0,-2.2888,-2.2889,0,0,0,0,0,0,0,0,-2.2798,-2.2804,-2.2846,-2.2845,-2.2843,-2.2863,-2.2872,-2.2917,-2.2844,-2.2843,-2.2837,-2.2834,-2.287,-2.2874,-2.2885,-2.2956,-2.2958,-2.2888,-2.289,-2.2892,-2.2893,0,0,0,0,0,0,0,-2.2796,-2.2803,-2.2878,-2.2847,-2.2845,-2.2831,-2.2834,-2.288,-2.2871,-2.2843,-2.2839,-2.2843,-2.2869,-2.2882,-2.2886,-2.2958,-2.2888,-2.2891,-2.2894,-2.2895,-2.3095,-2.3098,0,0,0,0,0,0,-2.2796,-2.2801,-2.2877,-2.2879,-2.2813,-2.2836,-2.2838,-2.2859,-2.2871,-2.287,-2.2845,-2.284,-2.2877,-2.2881,-2.2887,-2.298,-2.2892,-2.2896,-2.2898,-2.3092,-2.3096,-2.3099,0,0,0,0,0,0,-2.2794,-2.2803,-2.2876,-2.2839,-2.2847,-2.284,-2.2864,-2.2861,-2.2874,-2.2873,-2.2871,-2.286,-2.2875,-2.2881,-2.2938,-2.298,-2.2897,-2.2901,-2.3088,-2.3093,-2.3097,-2.3167,0,0,0,0,0,0,-2.2791,-2.2802,-2.2832,-2.284,-2.2849,-2.2927,-2.2867,-2.2864,-2.2881,-2.2875,-2.2886,-2.2886,-2.2873,-2.2933,-2.2942,-2.2984,-2.2904,-2.3085,-2.3091,-2.3096,-2.3161,-2.3174,-2.3184,0,0,0,0,0,-2.2787,-2.2851,-2.2834,-2.2844,-2.2886,-2.2929,-2.2935,-2.2918,-2.2885,-2.2915,-2.2914,-2.2885,-2.2974,-2.2939,-2.2949,-2.2993,-2.3082,-2.3089,-2.3095,-2.3156,-2.3171,-2.3184,0,0,0,0,0,0,-2.285,-2.2852,-2.2833,-2.2901,-2.2915,-2.292,-2.2958,-2.2935,-2.2959,-2.2952,-2.2931,-2.2934,-2.2995,-2.2999,-2.296,-2.307,-2.3022,-2.3031,-2.3065,-2.3079,-2.3091,-2.3089,-2.2907,0,0,0,0,0,-2.2871,-2.2906,-2.2906,-2.2966,-2.2974,-2.2965,-2.2983,-2.2969,-2.2982,-2.2988,-2.2991,-2.3006,-2.3037,-2.3058,-2.3087,-2.3161,-2.3163,-2.3196,-2.3208,-2.3217,-2.3226,-2.3265,-2.328,-2.3121,-2.3121,-2.3121,0,0,-2.2917,-2.2922,-2.2945,-2.2979,-2.2988,-2.3024,-2.297,-2.3011,-2.3038,-2.2995,-2.3049,-2.3051,-2.3066,-2.3132,-2.3161,-2.3138,-2.327,-2.3226,-2.3233,-2.3237,-2.3274,-2.3289,-2.3302,-2.3125,-2.3125,-2.3124,0,0,-2.3018,-2.3026,-2.3077,-2.3087,-2.3101,-2.3094,-2.3106,-2.3114,-2.3114,-2.3168,-2.3136,-2.3167,-2.3221,-2.3233,-2.3247,-2.3351,-2.3326,-2.3361,-2.3422,-2.346,-2.3473,-2.3484,-2.3522,-2.3535,-2.3369,-2.3369,-2.3369,0,-2.3073,-2.3127,-2.3106,-2.3149,-2.3165,-2.3126,-2.3178,-2.3189,-2.3212,-2.3224,-2.3196,-2.3263,-2.327,-2.3338,-2.3364,-2.3376,-2.3389,-2.336,-2.3473,-2.3483,-2.3493,-2.3529,-2.3544,-2.3373,-2.3373,-2.3372,-2.3372,0,-2.3194,-2.3231,-2.327,-2.3293,-2.3313,-2.336,-2.3347,-2.3369,-2.3353,-2.3349,-2.3404,-2.3411,-2.344,-2.3455,-2.344,-2.3521,-2.3506,-2.3476,-2.3428,-2.3513,-2.3546,-2.356,-2.3379,-2.3378,-2.3377,-2.3376,0,0,-2.3337,-2.3347,-2.3362,-2.3372,-2.3384,-2.3412,-2.3457,-2.3485,-2.3505,-2.3522,-2.356,-2.3605,-2.3577,-2.3592,-2.3578,-2.3612,-2.3694,-2.3578,-2.3578,-2.36,-2.3785,-2.3808,-2.3824,-2.3677,-2.368,-2.3682,-2.3784,0,-2.3439,-2.3516,-2.3498,-2.3575,-2.3609,-2.3572,-2.3611,-2.3623,-2.362,-2.3649,-2.3645,-2.3679,-2.3639,-2.3648,-2.3679,-2.3678,-2.3732,-2.367,-2.3713,-2.3714,-2.3711,-2.3841,-2.3866,-2.3962,-2.3796,-2.3799,-2.38,0,-2.3568,-2.3589,-2.3669,-2.3675,-2.3688,-2.3724,-2.3748,-2.3775,-2.3788,-2.3783,-2.3799,-2.3778,-2.3822,-2.3773,-2.3834,-2.3793,-2.3809,-2.381,-2.3814,-2.3818,-2.3763,-2.385,-2.3992,-2.4007,-2.382,-2.3819,-2.3817,0,-2.3665,-2.3714,-2.3768,-2.3777,-2.3785,-2.3811,-2.3816,-2.3825,-2.3843,-2.3864,-2.3875,-2.3901,-2.3915,-2.3935,-2.3922,-2.3887,-2.3985,-2.3935,-2.3983,-2.3984,-2.4007,-2.4006,-2.4155,-2.4016,-2.4015,-2.4015,-2.4015,0,-2.3781,-2.3832,-2.3812,-2.3845,-2.39,-2.3879,-2.3934,-2.3935,-2.3943,-2.3976,-2.3946,-2.3977,-2.3956,-2.3986,-2.3975,-2.4028,-2.4034,-2.4032,-2.4029,-2.4035,-2.4036,-2.4047,-2.404,-2.4019,-2.4018,-2.4017,-2.4017,0,-2.3901,-2.3889,-2.3946,-2.3948,-2.395,-2.3991,-2.3993,-2.4024,-2.4018,-2.406,-2.4069,-2.406,-2.4093,-2.408,-2.4116,-2.4109,-2.4176,-2.4163,-2.4172,-2.4169,-2.4219,-2.4214,-2.438,-2.4401,-2.4248,-2.4249,-2.4251,0,-2.3976,-2.4014,-2.402,-2.404,-2.4047,-2.4079,-2.4096,-2.4076,-2.4096,-2.4112,-2.4141,-2.4171,-2.4195,-2.425,-2.4247,-2.4273,-2.4262,-2.4318,-2.4266,-2.4271,-2.4264,-2.4262,-2.4266,-2.4329,-2.4331,-2.4332,-2.4333,0,-2.4111,-2.4103,-2.413,-2.4154,-2.4176,-2.4194,-2.421,-2.4227,-2.4208,-2.4232,-2.4265,-2.4283,-2.4319,-2.4349,-2.4373,-2.4378,-2.4353,-2.435,-2.4362,-2.437,-2.4374,-2.4373,-2.4201,-2.4346,-2.4345,-2.4344,-2.4343,-2.4343,-2.4212,-2.4243,-2.4253,-2.4283,-2.4292,-2.4307,-2.4337,-2.4334,-2.4361,-2.4388,-2.4375,-2.4413,-2.4424,-2.4453,-2.4461,-2.4491,-2.4469,-2.4488,-2.4493,-2.4498,-2.4504,-2.4368,-2.4495,-2.4495,-2.4494,-2.4494,-2.4494,0,-2.4346,-2.435,-2.4378,-2.44,-2.4424,-2.4397,-2.4412,-2.4434,-2.4468,-2.448,-2.4503,-2.4541,-2.4571,-2.4569,-2.4596,-2.462,-2.4609,-2.4628,-2.4627,-2.4628,-2.4522,-2.4509,-2.4636,-2.4636,-2.4636,-2.4636,-2.4636,-2.4636,-2.4419,-2.4471,-2.4464,-2.4521,-2.4524,-2.4562,-2.4573,-2.4586,-2.4595,-2.4639,-2.4663,-2.4661,-2.4668,-2.4695,-2.472,-2.4719,-2.4731,-2.4754,-2.4749,-2.465,-2.4636,-2.4622,-2.461,-2.4756,-2.4757,-2.4852,-2.4853,-2.4854]},{"header":{"parameterUnit":"m.s-1","parameterCategory":1,"la1":30.2991,"la2":30.254,"lo1":-89.0895,"lo2":-89.0444,"dy":0.0017,"dx":0.0017,"nx":28,"ny":28,"refTime":"2024-11-29T09:00:00:Z","depth":0,"parameterNumber":3,"parameterNumberName":"V-component_of_WINDS"},"data":[0,0,0,0,0,0,0,0,0,0,0,0,0,0,0,0,0,0,0,0,0,0,0,0,0,0,0,0,0,0,0,0,0,0,0,0,0,0,0,0,0,0,0,0,0,0,0,0,0,0,0,0,0,0,0,0,0,0,-8.2475,-8.2477,0,-8.2609,-8.2611,-8.2612,-8.2521,-8.2517,-8.2513,-8.2509,-8.264,-8.2647,-8.2654,0,0,0,0,0,0,0,0,0,0,0,0,0,-8.2133,-8.214,-8.2475,-8.2477,-8.2478,-8.2609,-8.2611,-8.2613,-8.2522,-8.2517,-8.2512,-8.2507,-8.2637,-8.2646,-8.2655,0,0,0,0,0,0,0,0,0,0,0,0,0,-8.2276,-8.2142,-8.2475,-8.2449,-8.2448,-8.2609,-8.2611,-8.2613,-8.2523,-8.2517,-8.251,-8.2505,-8.2635,-8.2645,-8.2656,-8.2847,0,0,-8.269,-8.2694,0,0,0,0,0,0,0,0,-8.2268,-8.2289,-8.2451,-8.2451,-8.245,-8.2542,-8.2538,-8.2691,-8.2524,-8.2494,-8.2509,-8.2502,-8.2612,-8.2624,-8.2663,-8.2854,-8.2859,-8.2691,-8.2697,-8.2702,-8.2705,0,0,0,0,0,0,0,-8.2258,-8.2282,-8.2528,-8.2453,-8.2453,-8.2428,-8.2442,-8.2567,-8.2586,-8.2496,-8.249,-8.2508,-8.261,-8.2653,-8.2665,-8.2861,-8.269,-8.27,-8.2707,-8.2711,-8.3214,-8.3221,0,0,0,0,0,0,-8.2251,-8.2275,-8.2524,-8.2532,-8.2342,-8.244,-8.2455,-8.2519,-8.2584,-8.2588,-8.2513,-8.2503,-8.2637,-8.2653,-8.267,-8.2898,-8.2702,-8.2712,-8.2718,-8.3208,-8.3216,-8.3223,0,0,0,0,0,0,-8.2245,-8.2275,-8.2518,-8.2402,-8.2431,-8.2452,-8.2525,-8.2525,-8.2567,-8.2597,-8.2599,-8.2553,-8.2633,-8.2654,-8.2804,-8.2901,-8.2717,-8.2727,-8.32,-8.321,-8.3219,-8.3356,0,0,0,0,0,0,-8.2235,-8.2273,-8.2347,-8.2404,-8.2438,-8.2653,-8.2531,-8.2532,-8.2587,-8.2575,-8.2635,-8.2639,-8.2629,-8.2788,-8.2815,-8.2913,-8.2736,-8.3191,-8.3204,-8.3216,-8.3342,-8.3369,-8.3392,0,0,0,0,0,-8.2223,-8.2379,-8.2352,-8.2382,-8.2532,-8.2659,-8.2678,-8.2666,-8.2595,-8.2669,-8.2688,-8.2637,-8.2886,-8.2804,-8.2834,-8.2936,-8.3185,-8.3201,-8.3215,-8.3331,-8.3364,-8.3391,0,0,0,0,0,0,-8.233,-8.2386,-8.2356,-8.2535,-8.2594,-8.2643,-8.2736,-8.27,-8.2778,-8.2764,-8.2743,-8.2757,-8.2915,-8.294,-8.2848,-8.3124,-8.3024,-8.3046,-8.3102,-8.3133,-8.3157,-8.3148,-8.2745,0,0,0,0,0,-8.2376,-8.2477,-8.2518,-8.2672,-8.2703,-8.2715,-8.277,-8.2756,-8.2814,-8.2838,-8.2868,-8.2925,-8.3015,-8.3075,-8.3161,-8.3346,-8.3356,-8.343,-8.3455,-8.3475,-8.3494,-8.3593,-8.3626,-8.3273,-8.3273,-8.3273,0,0,-8.2468,-8.2511,-8.2576,-8.2695,-8.2738,-8.2841,-8.2736,-8.285,-8.2925,-8.2854,-8.2998,-8.3023,-8.3084,-8.3253,-8.3328,-8.3278,-8.3594,-8.3494,-8.351,-8.3518,-8.3612,-8.3645,-8.3675,-8.3284,-8.3282,-8.328,0,0,-8.2691,-8.2734,-8.2867,-8.2913,-8.2981,-8.2987,-8.3019,-8.3075,-8.3089,-8.3234,-8.3183,-8.3271,-8.3428,-8.3474,-8.3518,-8.3758,-8.3714,-8.3786,-8.3915,-8.4012,-8.4039,-8.4064,-8.4149,-8.4179,-8.3805,-8.3806,-8.3806,0,-8.2797,-8.2953,-8.2939,-8.3057,-8.311,-8.3053,-8.3186,-8.323,-8.3322,-8.3359,-8.3303,-8.3499,-8.3536,-8.3714,-8.3773,-8.3811,-8.3845,-8.3779,-8.4037,-8.4061,-8.4084,-8.4164,-8.4197,-8.3814,-8.3813,-8.3812,-8.3811,0,-8.308,-8.3188,-8.3287,-8.3379,-8.3444,-8.3569,-8.3572,-8.3638,-8.3618,-8.363,-8.3778,-8.3821,-8.3914,-8.3955,-8.3936,-8.413,-8.4097,-8.404,-8.3938,-8.4126,-8.4201,-8.4232,-8.3826,-8.3823,-8.382,-8.3818,0,0,-8.3373,-8.3457,-8.3493,-8.3534,-8.3605,-8.3687,-8.3809,-8.3902,-8.3959,-8.4023,-8.4123,-8.4258,-8.4205,-8.4255,-8.424,-8.4325,-8.4512,-8.4257,-8.4258,-8.4302,-8.4727,-8.477,-8.4807,-8.4483,-8.4489,-8.4493,-8.4722,0,-8.3599,-8.3814,-8.3805,-8.4005,-8.4104,-8.4051,-8.4156,-8.421,-8.4224,-8.4308,-8.4323,-8.4419,-8.4342,-8.4372,-8.4454,-8.4472,-8.4597,-8.4455,-8.4574,-8.4578,-8.456,-8.4846,-8.4892,-8.5106,-8.4751,-8.4756,-8.476,0,-8.3891,-8.3969,-8.4179,-8.4235,-8.4276,-8.4372,-8.4456,-8.4538,-8.4596,-8.4601,-8.4658,-8.4629,-8.4749,-8.4646,-8.4811,-8.4715,-8.4762,-8.4779,-8.4786,-8.4797,-8.468,-8.4863,-8.5174,-8.5206,-8.4806,-8.4803,-8.4799,0,-8.4084,-8.424,-8.4386,-8.4423,-8.4492,-8.456,-8.4591,-8.4644,-8.47,-8.4773,-8.4809,-8.4894,-8.4941,-8.5006,-8.5001,-8.4926,-8.5168,-8.5064,-8.5173,-8.5174,-8.5226,-8.5223,-8.5549,-8.5258,-8.5258,-8.5257,-8.5256,0,-8.4337,-8.4468,-8.4474,-8.4564,-8.4708,-8.4695,-8.4837,-8.4861,-8.4909,-8.5,-8.4958,-8.5045,-8.5032,-8.5118,-8.5114,-8.5251,-8.5272,-8.5278,-8.5275,-8.5282,-8.5281,-8.5312,-8.5297,-8.5266,-8.5264,-8.5262,-8.5261,0,-8.4576,-8.4586,-8.4741,-8.4794,-8.4811,-8.4915,-8.4958,-8.5042,-8.5053,-8.517,-8.5196,-8.5213,-8.5312,-8.5314,-8.5426,-8.5423,-8.5591,-8.5571,-8.5572,-8.5568,-8.5677,-8.5667,-8.6034,-8.6081,-8.5761,-8.5764,-8.5766,0,-8.4737,-8.4837,-8.4901,-8.4961,-8.4997,-8.5093,-8.5151,-8.5142,-8.5204,-8.5278,-8.5353,-8.5449,-8.5525,-8.5685,-8.5706,-8.5792,-8.5773,-8.5896,-8.5786,-8.5789,-8.5775,-8.5769,-8.5778,-8.5918,-8.5921,-8.5924,-8.5927,0,-8.5022,-8.5021,-8.5108,-8.5197,-8.5268,-8.5336,-8.5399,-8.545,-8.5447,-8.5518,-8.5621,-8.568,-8.5796,-8.5891,-8.5974,-8.6003,-8.5965,-8.5961,-8.5991,-8.5999,-8.5995,-8.5998,-8.563,-8.5953,-8.595,-8.5948,-8.5947,-8.5946,-8.5226,-8.5312,-8.5371,-8.5469,-8.5516,-8.5576,-8.5658,-8.568,-8.5766,-8.5861,-8.585,-8.5963,-8.6018,-8.6126,-8.6162,-8.6249,-8.6206,-8.625,-8.626,-8.6271,-8.6283,-8.5982,-8.6264,-8.6263,-8.6263,-8.6262,-8.6262,0,-8.5508,-8.5543,-8.5633,-8.5725,-8.5801,-8.576,-8.5828,-8.5894,-8.5995,-8.605,-8.6127,-8.6244,-8.6336,-8.6364,-8.6452,-8.6516,-8.6501,-8.654,-8.6535,-8.6542,-8.6317,-8.6282,-8.6551,-8.6551,-8.6551,-8.6551,-8.6551,-8.6551,-8.5664,-8.5807,-8.5814,-8.5979,-8.6013,-8.6126,-8.6168,-8.6223,-8.6267,-8.64,-8.6477,-8.6496,-8.654,-8.6631,-8.6713,-8.6719,-8.6753,-8.6799,-8.6798,-8.6587,-8.6558,-8.653,-8.6497,-8.6807,-8.6807,-8.7015,-8.7017,-8.7019]}]]